�N����,����,�g�[���i�����r���O�j���x,�g�[�����x,��g�[���i���ցj���x,����
 2004/03/01, 0:00,18.8,50,15.4,11.1
 2004/03/01, 0:15,18.3,50.7,15.2,11.1
 2004/03/01, 0:30,18.1,51,15,10.4
 2004/03/01, 0:45,17.8,51.3,14.8,10.6
 2004/03/01, 1:00,17.5,51.7,14.7,10.7
 2004/03/01, 1:15,17.1,52.5,14.5,10.8
 2004/03/01, 1:30,16.9,52.6,14.4,10.8
 2004/03/01, 1:45,16.8,52.6,14.2,10.9
 2004/03/01, 2:00,16.6,52.5,14.1,11
 2004/03/01, 2:15,16.4,52.6,14,11
 2004/03/01, 2:30,16.3,52.6,13.9,11.1
 2004/03/01, 2:45,16.2,52.6,13.8,11.1
 2004/03/01, 3:00,16,52.6,13.8,11.2
 2004/03/01, 3:15,15.8,52.9,13.6,11.2
 2004/03/01, 3:30,15.8,52.7,13.5,11.3
 2004/03/01, 3:45,15.6,52.9,13.4,11.3
 2004/03/01, 4:00,15.5,52.6,13.3,11.3
 2004/03/01, 4:15,15.5,52.5,13.2,11.4
 2004/03/01, 4:30,15.3,52.6,13.2,11.4
 2004/03/01, 4:45,15.2,52.5,13.1,11.5
 2004/03/01, 5:00,15,52.9,13,11.5
 2004/03/01, 5:15,15,52.6,12.9,11.5
 2004/03/01, 5:30,15,52.3,12.8,11.5
 2004/03/01, 5:45,14.8,52.5,12.8,11.6
 2004/03/01, 6:00,14.8,52.3,12.7,11.6
 2004/03/01, 6:15,14.7,52.3,12.6,11.6
 2004/03/01, 6:30,14.6,52.3,12.5,11.6
 2004/03/01, 6:45,14.6,52.1,12.4,11.6
 2004/03/01, 7:00,14.5,52.7,12.4,11.2
 2004/03/01, 7:15,18.6,51.5,12.4,11
 2004/03/01, 7:30,19.4,56.6,12.5,11.1
 2004/03/01, 7:45,19.9,51,15.4,11.1
 2004/03/01, 8:00,21.3,51.8,13.8,11.2
 2004/03/01, 8:15,21.6,51.7,13.6,11.2
 2004/03/01, 8:30,22.3,51.2,13.3,11.2
 2004/03/01, 8:45,22.6,48.8,13.4,11.3
 2004/03/01, 9:00,22.7,48.8,13.3,11.3
 2004/03/01, 9:15,23,48.2,13.3,11.3
 2004/03/01, 9:30,21.7,44.5,15.3,11.4
 2004/03/01, 9:45,19.8,46.5,16,11.4
 2004/03/01,10:00,19.2,47.1,15.5,11.5
 2004/03/01,10:15,18.7,49.2,15.2,11.5
 2004/03/01,10:30,18.6,48.7,15,11.5
 2004/03/01,10:45,18.1,49.3,14.8,11.6
 2004/03/01,11:00,17.9,49.3,14.6,11.6
 2004/03/01,11:15,17.7,49.4,14.5,11.6
 2004/03/01,11:30,17.2,50.5,14.4,11.6
 2004/03/01,11:45,17.1,51.3,14.5,11.7
 2004/03/01,12:00,17.4,48.8,14.7,11.7
 2004/03/01,12:15,17.2,48.9,14.4,11.7
 2004/03/01,12:30,17.1,45.2,14.6,11.7
 2004/03/01,12:45,16.7,43.5,14.4,11.8
 2004/03/01,13:00,16.7,42.3,14.4,11.8
 2004/03/01,13:15,16.5,42.1,14.3,11.8
 2004/03/01,13:30,16.3,42.1,14.2,11.9
 2004/03/01,13:45,16.1,42.9,13.9,11.9
 2004/03/01,14:00,16,42.6,13.8,11.9
 2004/03/01,14:15,15.9,42.3,13.7,12
 2004/03/01,14:30,15.7,41,13.5,12
 2004/03/01,14:45,15.9,43.6,13.5,12
 2004/03/01,15:00,15.9,43.5,13.7,12.1
 2004/03/01,15:15,16,42.7,14.1,12.1
 2004/03/01,15:30,16.1,42.7,14.2,12.1
 2004/03/01,15:45,16,42.5,14.2,12.2
 2004/03/01,16:00,16,41.6,13.9,12.2
 2004/03/01,16:15,15.9,41.5,13.8,12.2
 2004/03/01,16:30,15.7,40.8,13.6,12.2
 2004/03/01,16:45,15.5,41.2,13.4,12.3
 2004/03/01,17:00,16,43.8,13.3,12.3
 2004/03/01,17:15,16.5,45.9,13.2,12.3
 2004/03/01,17:30,16.7,47,13.1,12.3
 2004/03/01,17:45,16.9,47.9,13.1,12.4
 2004/03/01,18:00,16.9,47.8,13.1,12.4
 2004/03/01,18:15,17,48.4,13,12.4
 2004/03/01,18:30,17.3,51.3,13.2,12.4
 2004/03/01,18:45,17.1,50.4,13,12.4
 2004/03/01,19:00,18.7,46.9,14.1,12.4
 2004/03/01,19:15,19.8,43.2,15,12.4
 2004/03/01,19:30,20.6,41.2,15.5,12.4
 2004/03/01,19:45,19.9,39.6,15,12.4
 2004/03/01,20:00,19.3,39.8,14.2,12.5
 2004/03/01,20:15,18.8,45.1,13.8,12.5
 2004/03/01,20:30,21,41,15.8,12.5
 2004/03/01,20:45,21.4,41.3,14.2,12.5
 2004/03/01,21:00,19.8,42.6,13.6,11
 2004/03/01,21:15,19.3,43.2,13.3,11.2
 2004/03/01,21:30,18.8,43.8,13.1,11.3
 2004/03/01,21:45,18.4,44.3,13.4,11.3
 2004/03/01,22:00,18.4,44.8,12.9,11.3
 2004/03/01,22:15,18.2,45.2,12.8,11.3
 2004/03/01,22:30,18,46.9,12.7,11.4
 2004/03/01,22:45,17.9,47,12.6,11.4
 2004/03/01,23:00,17.6,46.8,12.6,11.4
 2004/03/01,23:15,17.4,46.5,12.4,11.4
 2004/03/01,23:30,17.6,53.2,12.4,11.4
 2004/03/01,23:45,18,54.3,12.3,11.4
 2004/03/02, 0:00,17.7,54.2,12.2,11.5
 2004/03/02, 0:15,17.7,52.9,12.1,10.5
 2004/03/02, 0:30,16.8,48,14,10.6
 2004/03/02, 0:45,16.4,48.2,13.8,10.6
 2004/03/02, 1:00,16,48,13.5,10.6
 2004/03/02, 1:15,15.8,48,13.3,10.6
 2004/03/02, 1:30,15.3,48.6,13.1,10.7
 2004/03/02, 1:45,15,48.8,12.8,10.7
 2004/03/02, 2:00,14.8,49,12.6,10.7
 2004/03/02, 2:15,14.5,49.3,12.4,10.7
 2004/03/02, 2:30,14.3,49.5,12.3,10.7
 2004/03/02, 2:45,14.2,49.6,12.2,10.7
 2004/03/02, 3:00,14,49.9,12,10.8
 2004/03/02, 3:15,13.8,49.8,12,10.8
 2004/03/02, 3:30,13.6,50.1,11.7,10.8
 2004/03/02, 3:45,13.6,50,11.6,10.8
 2004/03/02, 4:00,13.4,49.9,11.5,10.8
 2004/03/02, 4:15,13.2,50,11.3,10.8
 2004/03/02, 4:30,13.1,50.1,11.2,10.8
 2004/03/02, 4:45,13,50,11.1,10.8
 2004/03/02, 5:00,12.9,50.1,11,10.8
 2004/03/02, 5:15,12.7,50.1,10.9,10.8
 2004/03/02, 5:30,12.6,50.3,10.8,10.8
 2004/03/02, 5:45,12.5,50.2,10.6,10.8
 2004/03/02, 6:00,12.4,50.4,10.7,10.8
 2004/03/02, 6:15,14.9,50.7,10.5,10.8
 2004/03/02, 6:30,16.8,53.2,10.5,10.8
 2004/03/02, 6:45,18,53.4,10.7,10.8
 2004/03/02, 7:00,18.9,53.7,10.7,10.8
 2004/03/02, 7:15,19.7,51.9,11.1,10.8
 2004/03/02, 7:30,19.6,47.2,14.7,10.7
 2004/03/02, 7:45,20.6,47.8,12.1,10.8
 2004/03/02, 8:00,19.3,48.4,11.4,10.7
 2004/03/02, 8:15,18.1,44,11.2,10.7
 2004/03/02, 8:30,17.5,45.7,12.5,10.7
 2004/03/02, 8:45,16.8,45.2,12.9,10.7
 2004/03/02, 9:00,16.3,46.6,12.9,10.7
 2004/03/02, 9:15,15.8,47.5,12.7,10.7
 2004/03/02, 9:30,15.3,48.1,12.5,10.7
 2004/03/02, 9:45,14.9,49,12.4,10.7
 2004/03/02,10:00,14.7,50.8,12.6,10.7
 2004/03/02,10:15,14.6,52.5,12.8,10.7
 2004/03/02,10:30,14.5,52.5,12.8,10.7
 2004/03/02,10:45,14.6,52.2,12.9,10.7
 2004/03/02,11:00,14.7,51.6,13.1,10.7
 2004/03/02,11:15,14.7,51.4,13.1,10.7
 2004/03/02,11:30,14.8,51,13.2,10.7
 2004/03/02,11:45,14.8,50.7,13,10.7
 2004/03/02,12:00,14.8,50.7,13.1,10.8
 2004/03/02,12:15,14.8,50.6,13.1,10.8
 2004/03/02,12:30,14.9,50.6,13.2,10.8
 2004/03/02,12:45,15,50.4,13.3,10.8
 2004/03/02,13:00,15.1,50.2,13.4,10.8
 2004/03/02,13:15,15,50.4,13.4,10.9
 2004/03/02,13:30,15.5,49.5,13.8,10.9
 2004/03/02,13:45,16.1,48.8,14.1,10.9
 2004/03/02,14:00,16.2,48.7,14.1,10.9
 2004/03/02,14:15,16.2,48.7,14.1,11
 2004/03/02,14:30,16.1,49.3,14,11
 2004/03/02,14:45,15.9,49.6,13.9,11
 2004/03/02,15:00,15.9,49.5,13.6,11.1
 2004/03/02,15:15,15.8,49.6,13.5,11.1
 2004/03/02,15:30,15.8,49.6,13.4,11.1
 2004/03/02,15:45,15.9,49.6,13.4,11.2
 2004/03/02,16:00,16.1,49.5,13.5,11.2
 2004/03/02,16:15,15.7,49.6,13.5,11.2
 2004/03/02,16:30,15.6,49.8,13.3,11.3
 2004/03/02,16:45,15.5,49.7,13.2,11.3
 2004/03/02,17:00,15.4,49.5,13.2,11.3
 2004/03/02,17:15,15.3,49.8,12.9,11.4
 2004/03/02,17:30,16.7,50.8,12.9,11.4
 2004/03/02,17:45,17.6,49.6,13.4,11.4
 2004/03/02,18:00,17.1,51.5,12.9,11.5
 2004/03/02,18:15,16.8,52.3,12.8,11.5
 2004/03/02,18:30,16.7,51.6,12.7,11.5
 2004/03/02,18:45,17.3,52.6,12.6,11.5
 2004/03/02,19:00,19.1,46.5,12.6,11.5
 2004/03/02,19:15,19.8,45.1,12.6,11.6
 2004/03/02,19:30,20.4,41.9,12.6,11.6
 2004/03/02,19:45,20.6,40.1,12.6,11.6
 2004/03/02,20:00,20.9,39.4,13.9,11.6
 2004/03/02,20:15,21.2,41.9,14.5,11.6
 2004/03/02,20:30,21.9,42.3,14.7,11.6
 2004/03/02,20:45,22,43,13.5,11.6
 2004/03/02,21:00,21.5,40.5,16.8,11.6
 2004/03/02,21:15,22.2,40.2,14.7,11.6
 2004/03/02,21:30,22.5,42.1,13.8,11.6
 2004/03/02,21:45,22.7,44.7,13.7,11.6
 2004/03/02,22:00,21.3,43.6,13.4,11.6
 2004/03/02,22:15,20.4,44.4,13.1,11.6
 2004/03/02,22:30,19.8,44.7,12.9,11.6
 2004/03/02,22:45,19.4,44.7,12.8,11.6
 2004/03/02,23:00,19.1,45.8,12.8,11.6
 2004/03/02,23:15,19.3,46.4,12.8,11.6
 2004/03/02,23:30,19.2,46.9,12.6,11.6
 2004/03/02,23:45,18.9,47.2,12.5,11.6
 2004/03/03, 0:00,18.8,51.4,12.5,11.7
 2004/03/03, 0:15,18.8,50.6,12.3,11.6
 2004/03/03, 0:30,18.6,49.8,12.3,11.6
 2004/03/03, 0:45,17.4,46.1,14.1,11.7
 2004/03/03, 1:00,17,47.3,14.1,11.7
 2004/03/03, 1:15,16.6,50.2,14.1,11.6
 2004/03/03, 1:30,16.3,51,13.9,11.7
 2004/03/03, 1:45,16,50.9,13.8,11.7
 2004/03/03, 2:00,15.8,50.9,13.6,10.5
 2004/03/03, 2:15,15.5,50.7,13.5,10.5
 2004/03/03, 2:30,15.3,50.6,13.2,10.5
 2004/03/03, 2:45,15,50.3,13,10.5
 2004/03/03, 3:00,14.8,50.2,12.8,10.5
 2004/03/03, 3:15,14.6,50.1,12.8,10.6
 2004/03/03, 3:30,14.4,50.1,12.6,10.6
 2004/03/03, 3:45,14.3,49.9,12.4,10.6
 2004/03/03, 4:00,14.1,50.1,12.3,10.6
 2004/03/03, 4:15,14,49.8,12.1,10.6
 2004/03/03, 4:30,13.9,49.8,12.1,10.6
 2004/03/03, 4:45,13.8,49.7,12,10.6
 2004/03/03, 5:00,13.7,49.7,11.9,10.6
 2004/03/03, 5:15,13.5,49.6,11.7,10.6
 2004/03/03, 5:30,13.4,49.5,11.6,10.6
 2004/03/03, 5:45,13.3,49.5,11.5,10.6
 2004/03/03, 6:00,13.2,49.7,11.3,10.6
 2004/03/03, 6:15,13.1,49.5,11.2,10.6
 2004/03/03, 6:30,13,49.8,11.1,10.6
 2004/03/03, 6:45,15.2,51.5,11,9.7
 2004/03/03, 7:00,17,53.1,11.1,9.8
 2004/03/03, 7:15,18.1,53.6,12,9.8
 2004/03/03, 7:30,19.1,50.3,11.6,9.8
 2004/03/03, 7:45,18.1,49.1,11.8,9.8
 2004/03/03, 8:00,17.2,44.1,14.8,9.8
 2004/03/03, 8:15,16.2,48,14,9.8
 2004/03/03, 8:30,15.6,48.7,13.8,9.9
 2004/03/03, 8:45,15.3,49.2,13.7,9.9
 2004/03/03, 9:00,15,49.5,13.6,9.9
 2004/03/03, 9:15,14.9,49.6,13.3,9.9
 2004/03/03, 9:30,14.8,49.5,13.3,9.9
 2004/03/03, 9:45,14.8,49.6,13.3,10
 2004/03/03,10:00,14.7,49.5,13.5,10
 2004/03/03,10:15,14.8,49.5,13.8,10
 2004/03/03,10:30,14.8,49.5,13.9,10.1
 2004/03/03,10:45,14.9,49.4,13.8,10.1
 2004/03/03,11:00,14.9,49,13.9,10.1
 2004/03/03,11:15,14.9,49.1,14.1,10.1
 2004/03/03,11:30,15,48.8,13.9,10.2
 2004/03/03,11:45,15,48.9,13.7,10.2
 2004/03/03,12:00,15.1,48.6,13.6,10.2
 2004/03/03,12:15,15.1,48.7,13.6,10.3
 2004/03/03,12:30,15.1,48.6,13.5,10.3
 2004/03/03,12:45,15,48.8,13.5,10.3
 2004/03/03,13:00,15.1,48.5,13.4,10.4
 2004/03/03,13:15,15.1,48.5,13.3,10.4
 2004/03/03,13:30,15.1,48.3,13.2,10.5
 2004/03/03,13:45,15.1,48.2,13.1,10.5
 2004/03/03,14:00,15,48.2,12.9,10.6
 2004/03/03,14:15,14.9,48.1,12.9,10.6
 2004/03/03,14:30,14.9,48.2,12.8,10.6
 2004/03/03,14:45,15.1,48.4,12.9,10.7
 2004/03/03,15:00,18.2,49.4,12.6,10.7
 2004/03/03,15:15,19.6,48.3,12.7,10.8
 2004/03/03,15:30,17.5,44.3,14.1,10.8
 2004/03/03,15:45,17.8,46.3,13.2,10.9
 2004/03/03,16:00,17.9,46.4,12.8,10.9
 2004/03/03,16:15,16.8,45.3,13.8,10.9
 2004/03/03,16:30,16.8,45.9,13.3,11
 2004/03/03,16:45,16.6,45.6,12.9,11
 2004/03/03,17:00,17.3,46,12.7,11
 2004/03/03,17:15,17.6,46.2,12.5,11.1
 2004/03/03,17:30,17.7,48.7,12.4,11.1
 2004/03/03,17:45,17.5,47.5,12.4,11.1
 2004/03/03,18:00,17.9,48.8,12.3,11.2
 2004/03/03,18:15,17.8,52.5,12.4,11.2
 2004/03/03,18:30,17.9,55.7,12.3,11.2
 2004/03/03,18:45,17.7,48.1,12.1,11.2
 2004/03/03,19:00,17.3,45.2,12.6,11.3
 2004/03/03,19:15,18.1,50.9,12.1,11.3
 2004/03/03,19:30,18.3,52.9,12,11.3
 2004/03/03,19:45,18.4,51.4,12.2,11.3
 2004/03/03,20:00,17.4,47.1,12.1,11.3
 2004/03/03,20:15,18,48,12.6,11.3
 2004/03/03,20:30,20.1,48.7,12.7,11.3
 2004/03/03,20:45,18,47.9,14.8,10.5
 2004/03/03,21:00,17.4,49.6,14.7,10.5
 2004/03/03,21:15,17.4,49.3,13.9,10.6
 2004/03/03,21:30,17.4,49.2,13.3,10.6
 2004/03/03,21:45,17.3,48.6,13.2,10.7
 2004/03/03,22:00,16.7,48.6,13.6,10.7
 2004/03/03,22:15,16.4,48.2,13.8,10.7
 2004/03/03,22:30,16,47.3,13.6,10.8
 2004/03/03,22:45,15.8,46.8,13.3,10.8
 2004/03/03,23:00,15.4,46.5,13.1,10.9
 2004/03/03,23:15,15.1,46.1,12.9,10.9
 2004/03/03,23:30,14.9,46.1,12.7,9.6
 2004/03/03,23:45,14.8,45.9,12.5,9.8
 2004/03/04, 0:00,14.6,46.2,12.4,9.8
 2004/03/04, 0:15,14.4,46,12.2,9.9
 2004/03/04, 0:30,14.3,46,12.1,9.9
 2004/03/04, 0:45,14.1,46.1,12,9.9
 2004/03/04, 1:00,13.9,46.1,11.8,10
 2004/03/04, 1:15,13.8,46.1,11.7,10
 2004/03/04, 1:30,13.6,46.4,11.6,10
 2004/03/04, 1:45,13.5,46.3,11.5,10.1
 2004/03/04, 2:00,13.4,46.5,11.3,10.1
 2004/03/04, 2:15,13.2,46.6,11.4,10.1
 2004/03/04, 2:30,13.2,46.7,11.2,10.1
 2004/03/04, 2:45,13,46.4,11.1,10.1
 2004/03/04, 3:00,12.9,46.7,11,10.1
 2004/03/04, 3:15,12.9,46.7,10.9,10.2
 2004/03/04, 3:30,12.8,46.9,10.8,10.2
 2004/03/04, 3:45,12.6,46.9,10.8,10.2
 2004/03/04, 4:00,12.6,47.2,10.7,10.2
 2004/03/04, 4:15,12.5,47.2,10.6,10.2
 2004/03/04, 4:30,12.4,47.5,10.5,10.2
 2004/03/04, 4:45,12.4,47.5,10.4,10.2
 2004/03/04, 5:00,12.2,48,10.3,10.2
 2004/03/04, 5:15,12.2,47.9,10.3,10.2
 2004/03/04, 5:30,12.1,48,10.3,10.2
 2004/03/04, 5:45,12.1,47.8,10.1,10.2
 2004/03/04, 6:00,12,48.3,10,10.2
 2004/03/04, 6:15,12,48,10,10.2
 2004/03/04, 6:30,13.5,49.7,10,10.2
 2004/03/04, 6:45,15.8,50.9,10,10.2
 2004/03/04, 7:00,17,52.1,10,10.2
 2004/03/04, 7:15,18.1,51.7,10.4,10.2
 2004/03/04, 7:30,19.2,51.5,10.9,9.4
 2004/03/04, 7:45,19.6,49.9,10.6,9.5
 2004/03/04, 8:00,20.2,47,11.1,9.5
 2004/03/04, 8:15,21.1,45.4,10.9,9.5
 2004/03/04, 8:30,20.2,43.6,10.9,9.6
 2004/03/04, 8:45,17.7,44.1,12.3,9.6
 2004/03/04, 9:00,16.6,46.2,14.1,9.6
 2004/03/04, 9:15,16,47.2,14.2,9.6
 2004/03/04, 9:30,16,46,14.2,9.6
 2004/03/04, 9:45,15.7,47.4,13.9,9.7
 2004/03/04,10:00,15.4,47.8,13.6,9.7
 2004/03/04,10:15,15.4,47.5,13.3,9.7
 2004/03/04,10:30,15.3,47.7,13.3,9.7
 2004/03/04,10:45,16,46.3,14,9.7
 2004/03/04,11:00,16.1,46.4,14.4,9.8
 2004/03/04,11:15,16,42.6,14.4,9.8
 2004/03/04,11:30,16,45.7,14.8,9.8
 2004/03/04,11:45,16.1,44.3,15.1,9.8
 2004/03/04,12:00,16.2,45,15,9.9
 2004/03/04,12:15,16.3,46.2,15.4,9.9
 2004/03/04,12:30,16.5,45.9,15.6,9.9
 2004/03/04,12:45,16.5,46.1,15.5,10
 2004/03/04,13:00,16.5,45.9,15.6,10
 2004/03/04,13:15,16.5,45.9,15.5,10
 2004/03/04,13:30,16.5,45.9,15.4,10.1
 2004/03/04,13:45,16.5,45.9,15.5,10.1
 2004/03/04,14:00,16.6,45.8,15.6,10.2
 2004/03/04,14:15,16.5,46.1,15.5,10.2
 2004/03/04,14:30,16.4,46.3,14.8,10.3
 2004/03/04,14:45,16.4,46.2,14.5,10.3
 2004/03/04,15:00,16.3,46.5,14.4,10.4
 2004/03/04,15:15,16.1,46.8,14.1,10.4
 2004/03/04,15:30,15.9,46.9,13.8,10.5
 2004/03/04,15:45,15.6,46.2,13.5,10.5
 2004/03/04,16:00,15.5,48.4,13.5,10.6
 2004/03/04,16:15,15.4,48.2,13.3,10.6
 2004/03/04,16:30,17.7,47.1,13.7,10.7
 2004/03/04,16:45,19.4,47.7,13.3,10.7
 2004/03/04,17:00,20.3,48.6,13.2,10.8
 2004/03/04,17:15,21.1,48.6,13.1,10.8
 2004/03/04,17:30,21.7,47.9,13.8,10.8
 2004/03/04,17:45,21.7,46.6,13.4,10.9
 2004/03/04,18:00,19.7,46.4,13.8,10.9
 2004/03/04,18:15,19.5,46.6,13.1,10.9
 2004/03/04,18:30,19.1,46.6,12.9,11
 2004/03/04,18:45,18.9,47.6,12.8,11
 2004/03/04,19:00,18.5,45.5,12.6,11
 2004/03/04,19:15,17.9,44.1,12.4,11
 2004/03/04,19:30,17.5,43.2,12.3,11
 2004/03/04,19:45,19.6,40.1,12.1,11
 2004/03/04,20:00,20,39,12,11
 2004/03/04,20:15,20.5,40.4,12.1,11
 2004/03/04,20:30,20.8,40.5,12.4,11
 2004/03/04,20:45,20.7,43.1,12.3,11
 2004/03/04,21:00,20.8,44.3,12.3,11
 2004/03/04,21:15,18.8,41.6,14.7,11
 2004/03/04,21:30,18.1,42.9,14.7,11
 2004/03/04,21:45,17.3,43.8,14.2,11
 2004/03/04,22:00,16.7,44.3,13.9,11
 2004/03/04,22:15,16.2,44.6,13.6,11
 2004/03/04,22:30,15.9,44.8,13.3,11
 2004/03/04,22:45,15.4,45.2,13.1,11
 2004/03/04,23:00,15.1,45.3,12.8,11
 2004/03/04,23:15,14.8,45.6,12.6,11
 2004/03/04,23:30,14.6,45.8,12.4,11
 2004/03/04,23:45,14.3,45.9,12.2,11
 2004/03/05, 0:00,14.1,46,12,11
 2004/03/05, 0:15,13.8,46.3,11.8,11
 2004/03/05, 0:30,13.7,46.1,11.6,11
 2004/03/05, 0:45,13.5,46,11.5,11
 2004/03/05, 1:00,13.5,45.6,11.3,11
 2004/03/05, 1:15,13.2,46.1,11.1,11
 2004/03/05, 1:30,13.1,45.9,10.9,11
 2004/03/05, 1:45,12.8,46.2,10.8,11
 2004/03/05, 2:00,12.6,46.2,10.6,9.4
 2004/03/05, 2:15,12.5,46.6,10.6,9.4
 2004/03/05, 2:30,12.3,46.5,10.4,9.4
 2004/03/05, 2:45,12.1,46.9,10.2,9.4
 2004/03/05, 3:00,12,46.6,10.1,9.4
 2004/03/05, 3:15,11.8,47.2,10,9.4
 2004/03/05, 3:30,11.7,46.8,9.9,9.4
 2004/03/05, 3:45,11.6,47.1,9.7,8.8
 2004/03/05, 4:00,11.4,47.2,9.6,8.8
 2004/03/05, 4:15,11.3,47.4,9.5,8.8
 2004/03/05, 4:30,11.2,47.3,9.4,8.9
 2004/03/05, 4:45,11.1,47.3,9.4,8.9
 2004/03/05, 5:00,11,47,9.2,8.9
 2004/03/05, 5:15,10.9,47.3,9,8.9
 2004/03/05, 5:30,10.7,47,8.9,8.9
 2004/03/05, 5:45,10.6,47.4,8.9,8.9
 2004/03/05, 6:00,10.5,47.1,8.8,8.9
 2004/03/05, 6:15,11.9,48.9,8.7,8.9
 2004/03/05, 6:30,13.9,50.2,8.7,8.9
 2004/03/05, 6:45,15.1,54.3,8.8,8.9
 2004/03/05, 7:00,14.9,54.7,8.8,8.9
 2004/03/05, 7:15,14.8,54,9.1,8.9
 2004/03/05, 7:30,16.2,52.2,8.9,8.9
 2004/03/05, 7:45,16.8,49.6,9.3,8.9
 2004/03/05, 8:00,17.3,48.5,9.4,8.9
 2004/03/05, 8:15,17.9,44.9,10.3,8.9
 2004/03/05, 8:30,18.2,43.1,9.6,8.9
 2004/03/05, 8:45,18.8,42.4,9.6,8.9
 2004/03/05, 9:00,19.5,40.7,9.7,8.9
 2004/03/05, 9:15,19.3,39.4,10.1,8.9
 2004/03/05, 9:30,16.8,42.6,14.9,8.9
 2004/03/05, 9:45,16.1,45.1,15.3,8.9
 2004/03/05,10:00,15.7,46.6,15.5,8.9
 2004/03/05,10:15,15.4,47.7,15.5,8.9
 2004/03/05,10:30,15.5,47.9,15.6,8.9
 2004/03/05,10:45,15.5,48,15.5,8.9
 2004/03/05,11:00,15.7,47.4,15.5,8.9
 2004/03/05,11:15,16,48.2,15.4,9
 2004/03/05,11:30,16.3,47.1,15,9
 2004/03/05,11:45,16.2,47.9,15.4,9
 2004/03/05,12:00,16.2,48.2,15.5,9
 2004/03/05,12:15,16.3,48.7,15.6,9.1
 2004/03/05,12:30,16.5,50.1,15.8,9.1
 2004/03/05,12:45,16.5,50.5,15.8,9.1
 2004/03/05,13:00,16.6,50.2,15.9,9.1
 2004/03/05,13:15,16.7,49.8,16,9.2
 2004/03/05,13:30,16.7,49.5,15.9,9.2
 2004/03/05,13:45,16.8,49.6,15.9,9.2
 2004/03/05,14:00,16.7,49.5,15.9,9.3
 2004/03/05,14:15,16.7,49.4,15.9,9.3
 2004/03/05,14:30,16.7,49.5,15.8,9.4
 2004/03/05,14:45,16.8,49.5,15.8,9.4
 2004/03/05,15:00,16.7,49.4,15.6,9.5
 2004/03/05,15:15,16.7,49.3,15.6,9.5
 2004/03/05,15:30,16.7,49.5,15.5,9.6
 2004/03/05,15:45,16.9,48.5,15.3,9.6
 2004/03/05,16:00,17.1,48.4,15.3,9.7
 2004/03/05,16:15,17.1,48.4,15.2,9.7
 2004/03/05,16:30,17.3,49.4,14.8,9.8
 2004/03/05,16:45,17.4,49.1,14.6,9.8
 2004/03/05,17:00,17.3,49.2,14.4,9.9
 2004/03/05,17:15,17.1,49.2,14.3,10
 2004/03/05,17:30,17.2,48,14.2,10
 2004/03/05,17:45,17.6,47,14.4,10.1
 2004/03/05,18:00,17.5,46.3,14.4,10.2
 2004/03/05,18:15,17.9,47.4,14,10.2
 2004/03/05,18:30,18,51.2,13.8,10.3
 2004/03/05,18:45,18.2,50,13.7,10.4
 2004/03/05,19:00,18.4,50,13.6,10.4
 2004/03/05,19:15,18.5,49.1,13.4,10.5
 2004/03/05,19:30,18.5,49.7,13.4,10.6
 2004/03/05,19:45,18.5,48.5,13.3,9.7
 2004/03/05,20:00,18.3,48.6,13.3,9.7
 2004/03/05,20:15,17.9,47.2,13.1,9.8
 2004/03/05,20:30,18.3,50.7,13.1,9.9
 2004/03/05,20:45,18.4,50.9,12.9,9.9
 2004/03/05,21:00,19.7,50.5,12.9,10
 2004/03/05,21:15,21.4,48.6,12.9,10.1
 2004/03/05,21:30,20,48.3,12.8,10.1
 2004/03/05,21:45,20,48.6,12.8,10.2
 2004/03/05,22:00,19.6,47.9,12.8,10.3
 2004/03/05,22:15,19.5,43.4,14.7,10.3
 2004/03/05,22:30,18.8,43.4,14.9,9.6
 2004/03/05,22:45,18.4,43.1,14.5,9.7
 2004/03/05,23:00,17.8,43.8,14.2,9.8
 2004/03/05,23:15,17.3,44.4,14.1,9.8
 2004/03/05,23:30,16.8,45,13.8,9.9
 2004/03/05,23:45,16.4,45.4,13.6,9.9
 2004/03/06, 0:00,16.2,45.6,13.4,10
 2004/03/06, 0:15,15.9,46,13.3,10
 2004/03/06, 0:30,15.6,46.2,13.1,10.1
 2004/03/06, 0:45,15.4,46.3,12.9,10.1
 2004/03/06, 1:00,15.2,46.7,12.8,10.2
 2004/03/06, 1:15,15,46.5,12.7,10.2
 2004/03/06, 1:30,14.8,46.9,12.7,10.2
 2004/03/06, 1:45,14.8,46.9,12.4,10.3
 2004/03/06, 2:00,14.6,47.2,12.5,10.3
 2004/03/06, 2:15,14.5,47.6,12.3,10.3
 2004/03/06, 2:30,14.4,48,12.2,10.4
 2004/03/06, 2:45,14.3,48,12.2,10.4
 2004/03/06, 3:00,14.2,48.1,12.1,10.4
 2004/03/06, 3:15,14.1,48.3,12.1,10.4
 2004/03/06, 3:30,14.1,48.4,12,10.5
 2004/03/06, 3:45,14.1,48.4,12,10.5
 2004/03/06, 4:00,14,48.6,11.8,10.5
 2004/03/06, 4:15,13.9,48.7,11.7,10.5
 2004/03/06, 4:30,13.9,48.8,11.7,10.5
 2004/03/06, 4:45,13.8,48.8,11.6,10.6
 2004/03/06, 5:00,13.8,48.7,11.6,10.6
 2004/03/06, 5:15,13.7,48.8,11.5,10.6
 2004/03/06, 5:30,13.7,49,11.5,10.6
 2004/03/06, 5:45,13.5,49,11.4,10.6
 2004/03/06, 6:00,13.5,49,11.4,10.6
 2004/03/06, 6:15,13.3,49.3,11.4,10.6
 2004/03/06, 6:30,13.3,49.1,11.3,10.7
 2004/03/06, 6:45,13.2,49.7,11.1,10.7
 2004/03/06, 7:00,16.3,51.9,11.1,10.7
 2004/03/06, 7:15,17.8,53.6,11.2,10.7
 2004/03/06, 7:30,18.7,50.6,11.5,10.7
 2004/03/06, 7:45,19.9,54,11.4,10.7
 2004/03/06, 8:00,21.1,53.3,11.5,10.7
 2004/03/06, 8:15,21.9,52.7,11.7,10.7
 2004/03/06, 8:30,22.1,50.5,12,10.7
 2004/03/06, 8:45,22,48.6,12.1,9.8
 2004/03/06, 9:00,19.7,43.8,14.1,9.9
 2004/03/06, 9:15,19.2,44.3,15.5,9.9
 2004/03/06, 9:30,18.9,43.7,15.8,10
 2004/03/06, 9:45,18.2,45.2,15.9,10
 2004/03/06,10:00,18,45.7,15.9,10
 2004/03/06,10:15,17.8,45.7,15.9,10.1
 2004/03/06,10:30,17.7,45.7,15.4,10.1
 2004/03/06,10:45,17.7,45.5,15.8,10.2
 2004/03/06,11:00,17.8,45.2,16,10.2
 2004/03/06,11:15,17.7,45.3,16.2,10.3
 2004/03/06,11:30,17.6,45,15.5,10.3
 2004/03/06,11:45,17.5,45,15,10.3
 2004/03/06,12:00,17.3,44.9,14.7,10.4
 2004/03/06,12:15,17.2,45,14.3,10.4
 2004/03/06,12:30,17.1,44.8,14.1,10.5
 2004/03/06,12:45,17,44.6,13.9,10.5
 2004/03/06,13:00,16.8,45.3,14.1,10.5
 2004/03/06,13:15,17.1,46.4,14.2,10
 2004/03/06,13:30,19.7,48.8,15.4,10.1
 2004/03/06,13:45,21.2,47.3,15,10.2
 2004/03/06,14:00,21.8,46.8,14,10.2
 2004/03/06,14:15,22.1,48.1,13.9,10.3
 2004/03/06,14:30,22.3,46.9,14.1,10.3
 2004/03/06,14:45,22.1,41.7,15.4,10.4
 2004/03/06,15:00,20.9,41.7,14.1,10.5
 2004/03/06,15:15,20.2,41.6,13.8,10.5
 2004/03/06,15:30,20.8,42.4,13.7,10.5
 2004/03/06,15:45,22.3,40.2,13.8,10.6
 2004/03/06,16:00,22.6,39.7,13.8,10.6
 2004/03/06,16:15,22.8,39.5,13.8,10.7
 2004/03/06,16:30,23,38.8,14,10.7
 2004/03/06,16:45,23.1,37.9,14.1,10.8
 2004/03/06,17:00,21.6,39.1,13.8,10.8
 2004/03/06,17:15,20.4,39.8,14.9,10.8
 2004/03/06,17:30,19.9,41.3,14,10.9
 2004/03/06,17:45,19.3,41.1,14.2,10.9
 2004/03/06,18:00,19.2,41.3,13.7,10.9
 2004/03/06,18:15,19,42.8,13.6,11
 2004/03/06,18:30,19.1,47,13.7,11
 2004/03/06,18:45,19.2,53.4,13.8,11
 2004/03/06,19:00,19.4,54.3,13.7,11
 2004/03/06,19:15,19.4,56.8,13.1,11.1
 2004/03/06,19:30,19.3,53.7,13,11.1
 2004/03/06,19:45,19.1,52.6,12.8,9.8
 2004/03/06,20:00,19,50.6,12.8,9.8
 2004/03/06,20:15,18.6,48.8,13.2,9.3
 2004/03/06,20:30,18.5,47.2,12.8,9.4
 2004/03/06,20:45,18.4,48.1,12.8,9.4
 2004/03/06,21:00,18.6,48.9,12.8,9.5
 2004/03/06,21:15,20.7,48.1,15.4,9.6
 2004/03/06,21:30,19.8,46.4,13.4,9.6
 2004/03/06,21:45,18.8,46.9,12.9,9.7
 2004/03/06,22:00,18.4,46.8,12.7,9.8
 2004/03/06,22:15,18.1,46.6,12.5,9.8
 2004/03/06,22:30,17.5,45.5,13,9.8
 2004/03/06,22:45,17.2,45.6,13.8,9.9
 2004/03/06,23:00,16.9,45.8,13.6,9.9
 2004/03/06,23:15,16.4,46,13.3,9.9
 2004/03/06,23:30,16,46.1,13.1,10
 2004/03/06,23:45,15.4,47.2,13,10
 2004/03/07, 0:00,15.2,46.9,12.6,10
 2004/03/07, 0:15,14.8,46.9,12.4,10
 2004/03/07, 0:30,14.6,46.6,12.3,10.1
 2004/03/07, 0:45,14.4,46.3,12.1,10.1
 2004/03/07, 1:00,14.2,46.6,11.9,9.1
 2004/03/07, 1:15,14,46.8,11.7,9.2
 2004/03/07, 1:30,13.8,47,11.6,9.2
 2004/03/07, 1:45,13.6,46.9,11.5,9.2
 2004/03/07, 2:00,13.5,46.6,11.3,9.3
 2004/03/07, 2:15,13.3,46.5,11.3,9.3
 2004/03/07, 2:30,13.1,46.4,11.1,9.3
 2004/03/07, 2:45,13,46.2,10.9,9.3
 2004/03/07, 3:00,12.8,46.2,10.8,8.6
 2004/03/07, 3:15,12.7,46,10.7,8.7
 2004/03/07, 3:30,12.5,46.1,10.7,8.7
 2004/03/07, 3:45,12.4,45.8,10.5,8.7
 2004/03/07, 4:00,12.2,45.9,10.4,8.8
 2004/03/07, 4:15,12.1,45.8,10.3,8.8
 2004/03/07, 4:30,12,45.5,10.1,8.8
 2004/03/07, 4:45,11.9,45.2,10,8.8
 2004/03/07, 5:00,11.7,45.4,10,8.9
 2004/03/07, 5:15,11.6,45.2,9.8,8.9
 2004/03/07, 5:30,11.5,45.2,9.8,8.9
 2004/03/07, 5:45,11.4,45,9.8,8.9
 2004/03/07, 6:00,11.4,45,9.7,8.9
 2004/03/07, 6:15,11.3,44.7,9.5,9
 2004/03/07, 6:30,11.2,44.8,9.6,8.9
 2004/03/07, 6:45,11.1,44.5,9.4,9
 2004/03/07, 7:00,11.1,44.8,9.4,9
 2004/03/07, 7:15,11.1,44.8,9.3,8.4
 2004/03/07, 7:30,11.2,45.8,9.2,8.4
 2004/03/07, 7:45,13.1,47.5,12.3,8.4
 2004/03/07, 8:00,14.3,48.4,11.4,8.2
 2004/03/07, 8:15,15.6,50.4,10.4,8.3
 2004/03/07, 8:30,15.1,49.7,10.4,8.3
 2004/03/07, 8:45,14.7,50,10.1,8.4
 2004/03/07, 9:00,14.9,51.4,10,8.4
 2004/03/07, 9:15,15.2,54.2,10,8.4
 2004/03/07, 9:30,15.4,55.1,9.9,8.5
 2004/03/07, 9:45,15.4,56.3,10,8.5
 2004/03/07,10:00,15.7,55.2,10,8.5
 2004/03/07,10:15,17.7,56.6,10.3,8.6
 2004/03/07,10:30,19.3,54.3,10.4,8.6
 2004/03/07,10:45,20.1,50.5,10.9,8.6
 2004/03/07,11:00,20.9,49.6,10.9,8.6
 2004/03/07,11:15,19.2,47.2,11.9,8.7
 2004/03/07,11:30,20.8,45.8,12.9,8.9
 2004/03/07,11:45,18.6,42.7,15,9
 2004/03/07,12:00,18.5,44.4,14.1,9.1
 2004/03/07,12:15,18.7,43.4,12.6,9.1
 2004/03/07,12:30,18.5,42.7,12.1,9.1
 2004/03/07,12:45,17.8,42.5,12.8,9.2
 2004/03/07,13:00,21.1,41.4,12.5,9.2
 2004/03/07,13:15,20.6,41.7,12.8,9.2
 2004/03/07,13:30,17.7,42.6,15.5,9.2
 2004/03/07,13:45,18.8,41.5,13.4,9.3